Regional Weather Roundup
Issued by NWS Mt. Holly, NJ

Home | Current Version | Previous Version | Text Only | Print | Product List | Glossary On
Versions: 1 2 3 4 5 6 7 8 9 10 11 12 13 14 15 16 17 18 19 20 21 22 23 24 25 26 27 28 29 30 31 32 33 34 35 36 37 38 39 40 41 42 43 44 45 46 47 48 49 50
000
ASUS41 KPHI 090512
RWRPHI

REGIONAL WEATHER ROUNDUP
NATIONAL WEATHER SERVICE MOUNT HOLLY NJ
1200 AM EST TUE FEB 09 2016

NOTE:  "FAIR" INDICATES FEW OR NO CLOUDS BELOW 12,000 FEET WITH NO
SIGNIFICANT WEATHER AND/OR OBSTRUCTIONS TO VISIBILITY.

 * = STATION DOES NOT REPORT PRECIPITATION (E.G. RAIN, SNOW, ETC.)
        OR FOG.

NJZ015>026-090600-
SOUTHERN NEW JERSEY

CITY           SKY/WX    TMP DP  RH WIND       PRES   REMARKS
POMONA         LGT SNOW  33  31  92 E6        29.72F FOG     WCI  28
WILDWOOD*      CLOUDY    36  30  80 E7        29.71F WCI  30
MILLVILLE      LGT SNOW  33  31  92 E7        29.71F FOG     WCI  27
WRIGHTSTOWN    FLURRIES  30  30 100 NE8       29.70F WCI  23
MOUNT HOLLY    LGT SNOW  30  28  92 NE5       29.73F FOG     WCI  25
TRENTON        LGT SNOW  30  26  85 E6        29.73F FOG     WCI  24

$$
NJZ001>014-090600-
NORTHERN NEW JERSEY

CITY           SKY/WX    TMP DP  RH WIND       PRES   REMARKS
SUSSEX         LGT SNOW  27  22  81 NE5       29.72F WCI  22
ANDOVER*         N/A     28  22  78 VRB3      29.72S
MORRISTOWN     CLOUDY    28  23  80 E5        29.75F WCI  23
NEWARK         FRZ DRZL  30  25  81 NE6       29.76F WCI  24
TETERBORO      FLURRIES  28  21  75 NE7       29.76F WCI  21
CALDWELL       CLOUDY    28  23  81 NE8       29.76F WCI  20
SOMERVILLE     CLOUDY    30  24  78 E3        29.73F
ALLAIRE*       CLOUDY    30  21  69 NE7       29.73F WCI  23
TOMS RIVER*    CLOUDY    32  27  80 NE5       29.73F WCI  27

$$
PAZ043-044-047-054-055-060>062-066>071-090600-
EASTERN PENNSYLVANIA

CITY           SKY/WX    TMP DP  RH WIND       PRES   REMARKS
PHILADELPHIA   FLURRIES  32  28  85 E7        29.73F WCI  26
NORTH PHILA    LGT SNOW  31  28  89 E7        29.75F FOG     WCI  24
BLUE BELL*       N/A     30  28  93 CALM      29.71F
DOYLESTOWN     LGT SNOW  28  27  96 VRB3      29.71F FOG
QUAKERTOWN*    CLOUDY    30  28  93 SE7       29.71F WCI  23
POTTSTOWN      LGT SNOW  30  28  92 E6        29.72F FOG     WCI  24
LANCASTER      LGT SNOW  32  31  96 E10       29.67F FOG     WCI  24
COATESVILLE    LGT SNOW  30  30 100 E10G16    29.69F WCI  21
READING        LGT SNOW  32  28  85 SE8       29.68F FOG     WCI  25
ALLENTOWN      LGT SNOW  31  27  85 E6        29.71F FOG     WCI  25
MOUNT POCONO   LGT SNOW  23  19  85 SE8       29.62F FOG     WCI  14
HAZLETON       LGT SNOW  28  27  93 E8        29.64F WCI  20
LEHIGHTON      LGT SNOW  30  28  93 NE3       29.71F
WILKES BARRE   LGT SNOW  28  22  78 E3        29.66S

$$
DEZALL-MDZ008-012-015-019-020-090600-
DELAWARE AND EASTERN MARYLAND

CITY           SKY/WX    TMP DP  RH WIND       PRES   REMARKS
WILMINGTON     LGT SNOW  32  30  92 E7        29.72F FOG     WCI  26
DOVER          CLOUDY    35  35 100 E12       29.68F WCI  27
GEORGETOWN     CLOUDY    36  34  92 E6        29.68F WCI  31
EASTON         CLOUDY    36  36 100 SE5       29.71F WCI  32
PATUXENT       CLOUDY    38  34  85 SE9       29.65F WCI  31
OCEAN CITY     MOCLDY    39  34  82 E8        29.67F WCI  33
WALLOPS ISLAND FAIR      40  36  86 E8        29.66F WCI  34
CAMBRIDGE      CLOUDY    34  32  93 E6        29.66F WCI  29
SALISBURY      CLOUDY    36  34  92 NE6       29.66F WCI  31

$$
PAZ001-021-NYZ056-072-MDZ011-DCZ001-090600-
OTHER NEARBY LOCATIONS

CITY           SKY/WX    TMP DP  RH WIND       PRES   REMARKS
HARRISBURG     LGT SNOW  34  31  88 SE9       29.65F WCI  27
STATE COLLEGE  CLOUDY    34  30  85 CALM      29.58F
WILLIAMSPORT   CLOUDY    35  31  85 E3G17     29.63F
BINGHAMTON     LGT SNOW  26  22  84 SE10      29.60S FOG     WCI  16
NEW YORK CITY  CLOUDY    28  22  78 VRB7      29.77F WCI  21
BALTIMORE      LGT RAIN  36  34  92 SE6       29.66F WCI  31
WASHINGTON DC  CLOUDY    39  34  82 SE7       29.67F WCI  34

$$



USA.gov is the U.S. government's official web portal to all federal, state and local government web resources and services.